GW6468 Weather Reports


time (UTC)temp
C
wind
direction
speed
KPH
gust
KPH
rain 1hr
cm
rain 24hr
cm
rain mn
cm
humidity
%
barometer
mb
20260504210010 25 333 11.3 17.7 0.00 0.00 0.00 31 1013.4
20260504204513 25 326 9.7 19.3 0.00 0.00 0.00 31 1013.5
20260504203012 25 270 9.7 24.1 0.00 0.00 0.00 32 1013.5
20260504201515 25 320 9.7 20.9 0.00 0.00 0.00 32 1013.7
20260504200014 25 266 8.0 17.7 0.00 0.00 0.00 34 1014.2
20260504194518 25 226 6.4 17.7 0.00 0.00 0.00 34 1013.9
20260504193019 25 319 9.7 20.9 0.00 0.00 0.00 32 1014.2
20260504191511 25 312 11.3 19.3 0.00 0.00 0.00 32 1014.4
20260504190019 25 295 8.0 16.1 0.00 0.00 0.00 32 1014.6
20260504184537 25 279 3.2 9.7 0.00 0.00 0.00 29 1015.0
20260504183016 25 32 4.8 8.0 0.00 0.00 0.00 32 1015.1
20260504181518 23 46 9.7 19.3 0.00 0.00 0.00 33 1015.2
20260504180016 24 27 11.3 19.3 0.00 0.00 0.00 32 1015.6
20260504174518 23 330 8.0 19.3 0.00 0.00 0.00 32 1015.4
20260504173018 23 348 6.4 19.3 0.00 0.00 0.00 34 1015.6
20260504171519 23 271 6.4 16.1 0.00 0.00 0.00 35 1015.5
20260504081517 5 137 0.0 1.6 0.00 0.00 0.00 88 1016.4
20260504050013 8 157 0.0 0.0 0.00 0.00 0.00 72 1016.6
20260504044519 8 157 0.0 0.0 0.00 0.00 0.00 74 1016.7
20260504043022 10 180 0.0 0.0 0.00 0.00 0.00 66 1016.5
20260504041507 10 202 0.0 1.6 0.00 0.00 0.00 64 1016.5
20260504040010 9 202 0.0 0.0 0.00 0.00 0.00 67 1016.4
20260504034518 8 155 0.0 0.0 0.00 0.00 0.00 69 1016.5
20260504033018 8 169 0.0 0.0 0.00 0.00 0.00 68 1016.5
20260504031524 8 169 0.0 0.0 0.00 0.00 0.00 69 1016.8
20260504030008 8 169 0.0 0.0 0.00 0.00 0.00 69 1016.7
20260504024512 9 169 0.0 0.0 0.00 0.00 0.00 67 1016.8
20260504023014 10 169 0.0 0.0 0.00 0.00 0.00 64 1016.8
20260504021522 10 169 0.0 0.0 0.00 0.00 0.00 64 1016.7
20260504020026 11 182 0.0 0.0 0.00 0.00 0.00 56 1016.3
20260504014508 12 182 0.0 0.0 0.00 0.00 0.00 56 1016.0
20260504013016 13 182 0.0 0.0 0.00 0.00 0.00 49 1015.8
20260504011519 14 182 0.0 0.0 0.00 0.00 0.00 46 1015.8
20260504010020 13 182 0.0 1.6 0.00 0.00 0.00 46 1015.6
20260504004525 13 179 0.0 0.0 0.00 0.00 0.00 52 1015.5
20260504003010 14 179 0.0 0.0 0.00 0.00 0.00 51 1015.6
20260504001511 15 186 0.0 1.6 0.00 0.00 0.00 47 1015.3
20260504000018 17 196 0.0 1.6 0.00 0.00 0.00 43 1015.3
20260503234523 17 196 0.0 1.6 0.00 0.00 0.00 38 1015.2
20260503233035 18 214 3.2 6.4 0.00 0.00 0.00 35 1015.2
20260503231508 19 262 1.6 4.8 0.00 0.00 0.00 34 1015.2
20260503230016 19 274 4.8 9.7 0.00 0.00 0.00 31 1015.3
20260503224527 19 309 4.8 8.0 0.00 0.00 0.00 31 1015.3
20260503223004 19 233 4.8 12.9 0.00 0.00 0.00 30 1015.4
20260503221508 19 286 4.8 12.9 0.00 0.00 0.00 30 1015.4
20260503220018 20 257 6.4 17.7 0.00 0.00 0.00 28 1015.6
20260503214518 20 330 8.0 20.9 0.00 0.00 0.00 24 1015.7
20260503213022 20 14 9.7 22.5 0.00 0.00 0.00 23 1015.8
20260503211505 20 313 3.2 12.9 0.00 0.00 0.00 24 1016.0